Time,TemperatureF,DewpointF,PressureIn,WindDirection,WindDirectionDegrees,WindSpeedMPH,WindSpeedGustMPH,Humidity,HourlyPrecipIn,Conditions,Clouds,dailyrainin,SoftwareType,DateUTC
2013-04-09 00:00:00,55.9,30.0,29.30,NW,317,5.0,8.0,37,0.00,,,0.00,Wunderground v.1.15,2013-04-09 06:00:00,
2013-04-09 00:10:00,55.6,29.7,29.30,NNW,335,6.0,8.0,37,0.00,,,0.00,Wunderground v.1.15,2013-04-09 06:10:00,
2013-04-09 00:20:00,55.5,29.6,29.30,NW,305,7.0,14.0,37,0.00,,,0.00,Wunderground v.1.15,2013-04-09 06:20:00,
2013-04-09 00:30:00,55.1,29.9,29.28,NNW,343,7.0,7.0,38,0.00,,,0.00,Wunderground v.1.15,2013-04-09 06:30:00,
2013-04-09 00:40:00,54.9,30.4,29.29,NW,324,5.0,5.0,39,0.00,,,0.00,Wunderground v.1.15,2013-04-09 06:40:00,
2013-04-09 00:50:00,54.5,30.0,29.29,NW,319,6.0,6.0,39,0.00,,,0.00,Wunderground v.1.15,2013-04-09 06:50:00,
2013-04-09 01:00:00,54.2,29.8,29.28,NW,316,6.0,6.0,39,0.00,,,0.00,Wunderground v.1.15,2013-04-09 07:00:00,
2013-04-09 01:10:00,53.7,29.9,29.28,NW,325,7.0,7.0,40,0.00,,,0.00,Wunderground v.1.15,2013-04-09 07:10:00,
2013-04-09 01:20:00,53.1,30.0,29.28,NNW,327,6.0,15.0,41,0.00,,,0.00,Wunderground v.1.15,2013-04-09 07:20:00,
2013-04-09 01:30:00,52.7,30.2,29.28,NNW,332,5.0,5.0,42,0.00,,,0.00,Wunderground v.1.15,2013-04-09 07:30:00,
2013-04-09 01:40:00,52.4,30.0,29.28,NW,315,6.0,15.0,42,0.00,,,0.00,Wunderground v.1.15,2013-04-09 07:40:00,
2013-04-09 01:50:00,52.3,29.9,29.27,NW,316,4.0,15.0,42,0.00,,,0.00,Wunderground v.1.15,2013-04-09 07:50:00,
2013-04-09 02:00:00,52.2,29.8,29.25,NNW,327,3.0,15.0,42,0.00,,,0.00,Wunderground v.1.15,2013-04-09 08:00:00,
2013-04-09 02:10:00,52.1,29.7,29.25,NNW,328,3.0,15.0,42,0.00,,,0.00,Wunderground v.1.15,2013-04-09 08:10:00,
2013-04-09 02:20:00,52.2,29.8,29.25,NW,320,3.0,15.0,42,0.00,,,0.00,Wunderground v.1.15,2013-04-09 08:20:00,
2013-04-09 02:30:00,52.0,29.6,29.26,NW,325,3.0,3.0,42,0.00,,,0.00,Wunderground v.1.15,2013-04-09 08:30:00,
2013-04-09 02:40:00,51.9,30.1,29.26,NNW,332,3.0,15.0,43,0.00,,,0.00,Wunderground v.1.15,2013-04-09 08:40:00,
2013-04-09 02:50:00,51.7,29.9,29.27,WSW,254,6.0,6.0,43,0.00,,,0.00,Wunderground v.1.15,2013-04-09 08:50:00,
2013-04-09 03:00:00,51.3,30.7,29.27,WNW,296,3.0,3.0,45,0.00,,,0.00,Wunderground v.1.15,2013-04-09 09:00:00,
2013-04-09 03:10:00,51.0,31.5,29.27,West,266,3.0,3.0,47,0.00,,,0.00,Wunderground v.1.15,2013-04-09 09:10:00,
2013-04-09 03:20:00,50.3,32.8,29.25,NW,320,3.0,3.0,51,0.00,,,0.00,Wunderground v.1.15,2013-04-09 09:20:00,
2013-04-09 03:30:00,50.0,33.1,29.25,NW,314,3.0,15.0,52,0.00,,,0.00,Wunderground v.1.15,2013-04-09 09:30:00,
2013-04-09 03:40:00,50.0,33.1,29.25,North,360,3.0,3.0,52,0.00,,,0.00,Wunderground v.1.15,2013-04-09 09:40:00,
2013-04-09 03:50:00,50.1,33.6,29.26,NNW,342,1.0,15.0,53,0.00,,,0.00,Wunderground v.1.15,2013-04-09 09:50:00,
2013-04-09 04:00:00,50.2,33.2,29.26,NNW,342,1.0,15.0,52,0.00,,,0.00,Wunderground v.1.15,2013-04-09 10:00:00,
2013-04-09 04:10:00,50.5,34.0,29.24,NNE,16,4.0,15.0,53,0.00,,,0.00,Wunderground v.1.15,2013-04-09 10:10:00,
2013-04-09 04:20:00,50.4,33.4,29.23,NNE,17,7.0,7.0,52,0.00,,,0.00,Wunderground v.1.15,2013-04-09 10:20:00,
2013-04-09 04:30:00,50.5,33.5,29.23,NNE,14,6.0,15.0,52,0.00,,,0.00,Wunderground v.1.15,2013-04-09 10:30:00,
2013-04-09 04:40:00,50.6,34.6,29.25,NNE,17,2.0,15.0,54,0.00,,,0.01,Wunderground v.1.15,2013-04-09 10:40:00,
2013-04-09 04:50:00,50.2,36.8,29.26,SSE,150,3.0,15.0,60,0.00,,,0.01,Wunderground v.1.15,2013-04-09 10:50:00,
2013-04-09 05:00:00,49.9,37.0,29.27,SSE,167,5.0,15.0,61,0.00,,,0.02,Wunderground v.1.15,2013-04-09 11:00:00,
2013-04-09 05:10:00,49.7,35.9,29.28,SW,231,6.0,15.0,59,0.00,,,0.02,Wunderground v.1.15,2013-04-09 11:10:00,
2013-04-09 05:20:00,49.0,32.6,29.29,SE,129,14.0,15.0,53,0.00,,,0.02,Wunderground v.1.15,2013-04-09 11:20:00,
2013-04-09 05:30:00,48.6,34.5,29.28,SE,142,10.0,10.0,58,0.00,,,0.03,Wunderground v.1.15,2013-04-09 11:30:00,
2013-04-09 05:40:00,48.6,34.9,29.28,ESE,115,6.0,15.0,59,0.00,,,0.03,Wunderground v.1.15,2013-04-09 11:40:00,
2013-04-09 05:50:00,49.2,35.5,29.29,SSE,163,8.0,8.0,59,0.00,,,0.03,Wunderground v.1.15,2013-04-09 11:50:00,
2013-04-09 06:00:00,50.0,34.9,29.30,SSW,198,6.0,6.0,56,0.00,,,0.03,Wunderground v.1.15,2013-04-09 12:00:00,
2013-04-09 06:10:00,49.8,34.3,29.30,SSW,196,5.0,15.0,55,0.00,,,0.03,Wunderground v.1.15,2013-04-09 12:10:00,
2013-04-09 06:20:00,49.4,33.9,29.30,SSW,197,7.0,7.0,55,0.00,,,0.03,Wunderground v.1.15,2013-04-09 12:20:00,
2013-04-09 06:30:00,49.3,34.3,29.31,SSW,193,6.0,6.0,56,0.00,,,0.03,Wunderground v.1.15,2013-04-09 12:30:00,
2013-04-09 06:40:00,49.0,34.0,29.32,South,186,4.0,4.0,56,0.00,,,0.03,Wunderground v.1.15,2013-04-09 12:40:00,
2013-04-09 06:50:00,49.3,30.9,29.33,South,185,7.0,15.0,49,0.00,,,0.03,Wunderground v.1.15,2013-04-09 12:50:00,
2013-04-09 07:00:00,49.5,29.6,29.33,SW,214,10.0,15.0,46,0.00,,,0.03,Wunderground v.1.15,2013-04-09 13:00:00,
2013-04-09 07:10:00,49.2,29.8,29.34,SSE,163,11.0,11.0,47,0.00,,,0.03,Wunderground v.1.15,2013-04-09 13:10:00,
2013-04-09 07:20:00,47.3,32.4,29.36,SW,215,9.0,9.0,56,0.00,,,0.03,Wunderground v.1.15,2013-04-09 13:20:00,
2013-04-09 07:30:00,44.5,32.7,29.36,SW,228,7.0,15.0,63,0.00,,,0.03,Wunderground v.1.15,2013-04-09 13:30:00,
2013-04-09 07:40:00,44.4,32.6,29.37,SSW,206,7.0,15.0,63,0.00,,,0.03,Wunderground v.1.15,2013-04-09 13:40:00,
2013-04-09 07:50:00,44.9,32.3,29.38,South,191,8.0,15.0,61,0.00,,,0.03,Wunderground v.1.15,2013-04-09 13:50:00,
2013-04-09 08:00:00,45.7,29.5,29.38,South,169,10.0,15.0,53,0.00,,,0.03,Wunderground v.1.15,2013-04-09 14:00:00,
2013-04-09 08:10:00,45.5,27.4,29.38,South,188,14.0,19.0,49,0.00,,,0.03,Wunderground v.1.15,2013-04-09 14:10:00,
2013-04-09 08:20:00,45.8,27.7,29.38,South,176,13.0,13.0,49,0.00,,,0.03,Wunderground v.1.15,2013-04-09 14:20:00,
2013-04-09 08:30:00,46.2,28.6,29.39,SSE,165,12.0,15.0,50,0.00,,,0.03,Wunderground v.1.15,2013-04-09 14:30:00,
2013-04-09 08:40:00,46.5,28.3,29.40,SSE,168,12.0,18.0,49,0.00,,,0.03,Wunderground v.1.15,2013-04-09 14:40:00,
2013-04-09 08:50:00,46.4,28.3,29.41,South,179,12.0,16.0,49,0.00,,,0.03,Wunderground v.1.15,2013-04-09 14:50:00,
2013-04-09 09:00:00,46.2,27.6,29.40,SSW,206,12.0,12.0,48,0.00,,,0.03,Wunderground v.1.15,2013-04-09 15:00:00,
2013-04-09 09:10:00,46.6,26.9,29.42,SSW,202,12.0,15.0,46,0.00,,,0.03,Wunderground v.1.15,2013-04-09 15:10:00,
2013-04-09 09:20:00,46.5,26.8,29.42,South,173,11.0,22.0,46,0.00,,,0.03,Wunderground v.1.15,2013-04-09 15:20:00,
2013-04-09 09:30:00,45.9,27.3,29.44,SSW,206,13.0,13.0,48,0.00,,,0.03,Wunderground v.1.15,2013-04-09 15:30:00,
2013-04-09 09:40:00,43.4,30.0,29.45,SSW,194,13.0,13.0,59,0.00,,,0.03,Wunderground v.1.15,2013-04-09 15:40:00,
2013-04-09 09:50:00,44.0,28.4,29.46,SSW,199,7.0,15.0,54,0.00,,,0.03,Wunderground v.1.15,2013-04-09 15:50:00,
2013-04-09 10:00:00,42.7,30.6,29.48,SSW,206,12.0,15.0,62,0.00,,,0.03,Wunderground v.1.15,2013-04-09 16:00:00,
2013-04-09 10:10:00,42.1,31.9,29.49,SW,225,10.0,10.0,67,0.00,,,0.03,Wunderground v.1.15,2013-04-09 16:10:00,
2013-04-09 10:20:00,42.6,32.0,29.49,SE,136,5.0,15.0,66,0.00,,,0.03,Wunderground v.1.15,2013-04-09 16:20:00,
2013-04-09 10:30:00,42.6,31.7,29.49,SE,124,4.0,15.0,65,0.00,,,0.03,Wunderground v.1.15,2013-04-09 16:30:00,
2013-04-09 10:40:00,41.8,32.0,29.50,South,184,8.0,15.0,68,0.00,,,0.03,Wunderground v.1.15,2013-04-09 16:40:00,
2013-04-09 10:50:00,42.3,32.1,29.49,South,184,5.0,5.0,67,0.00,,,0.03,Wunderground v.1.15,2013-04-09 16:50:00,
2013-04-09 11:00:00,42.9,31.6,29.50,South,169,4.0,4.0,64,0.00,,,0.03,Wunderground v.1.15,2013-04-09 17:00:00,
2013-04-09 11:10:00,43.2,31.8,29.50,East,96,3.0,15.0,64,0.00,,,0.03,Wunderground v.1.15,2013-04-09 17:10:00,
2013-04-09 11:20:00,43.8,32.4,29.50,South,170,3.0,15.0,64,0.00,,,0.03,Wunderground v.1.15,2013-04-09 17:20:00,
2013-04-09 11:30:00,44.5,30.6,29.51,SSW,195,7.0,15.0,58,0.00,,,0.03,Wunderground v.1.15,2013-04-09 17:30:00,
2013-04-09 11:40:00,45.2,31.7,29.50,WSW,249,7.0,7.0,59,0.00,,,0.03,Wunderground v.1.15,2013-04-09 17:40:00,
2013-04-09 11:50:00,47.0,33.0,29.51,WSW,238,7.0,15.0,58,0.00,,,0.03,Wunderground v.1.15,2013-04-09 17:50:00,
2013-04-09 12:00:00,47.3,33.3,29.51,West,263,6.0,6.0,58,0.00,,,0.03,Wunderground v.1.15,2013-04-09 18:00:00,
2013-04-09 12:10:00,48.3,31.0,29.51,West,261,5.0,15.0,51,0.00,,,0.03,Wunderground v.1.15,2013-04-09 18:10:00,
2013-04-09 12:20:00,49.9,30.5,29.51,SSW,211,5.0,15.0,47,0.00,,,0.03,Wunderground v.1.15,2013-04-09 18:20:00,
2013-04-09 12:30:00,49.2,30.3,29.51,SW,234,10.0,10.0,48,0.00,,,0.03,Wunderground v.1.15,2013-04-09 18:30:00,
2013-04-09 12:40:00,48.8,30.5,29.52,SSW,207,7.0,7.0,49,0.00,,,0.03,Wunderground v.1.15,2013-04-09 18:40:00,
2013-04-09 12:50:00,47.6,29.9,29.52,SSW,200,4.0,15.0,50,0.00,,,0.03,Wunderground v.1.15,2013-04-09 18:50:00,
2013-04-09 13:00:00,47.9,29.6,29.52,SE,144,5.0,15.0,49,0.00,,,0.03,Wunderground v.1.15,2013-04-09 19:00:00,
2013-04-09 13:10:00,47.2,29.5,29.52,SE,146,8.0,15.0,50,0.00,,,0.04,Wunderground v.1.15,2013-04-09 19:10:00,
2013-04-09 13:20:00,46.6,27.9,29.52,SE,146,8.0,8.0,48,0.00,,,0.04,Wunderground v.1.15,2013-04-09 19:20:00,
2013-04-09 13:30:00,47.0,26.7,29.53,SE,133,8.0,8.0,45,0.00,,,0.04,Wunderground v.1.15,2013-04-09 19:30:00,
2013-04-09 13:40:00,47.1,27.4,29.52,SE,133,6.0,15.0,46,0.00,,,0.04,Wunderground v.1.15,2013-04-09 19:40:00,
2013-04-09 13:50:00,46.7,28.5,29.53,ESE,109,8.0,8.0,49,0.00,,,0.04,Wunderground v.1.15,2013-04-09 19:50:00,
2013-04-09 14:00:00,46.4,28.3,29.54,ESE,119,5.0,5.0,49,0.00,,,0.04,Wunderground v.1.15,2013-04-09 20:00:00,
2013-04-09 14:10:00,46.0,29.8,29.55,ESE,119,7.0,15.0,53,0.00,,,0.04,Wunderground v.1.15,2013-04-09 20:10:00,
2013-04-09 14:20:00,45.8,31.0,29.56,SE,126,8.0,8.0,56,0.00,,,0.04,Wunderground v.1.15,2013-04-09 20:20:00,
2013-04-09 14:30:00,46.3,31.0,29.55,SSE,156,5.0,15.0,55,0.00,,,0.04,Wunderground v.1.15,2013-04-09 20:30:00,
2013-04-09 14:40:00,46.6,30.4,29.55,East,97,7.0,15.0,53,0.00,,,0.04,Wunderground v.1.15,2013-04-09 20:40:00,
2013-04-09 14:50:00,46.9,30.2,29.56,SE,134,9.0,15.0,52,0.00,,,0.04,Wunderground v.1.15,2013-04-09 20:50:00,
2013-04-09 15:00:00,46.8,29.6,29.57,SSE,153,8.0,8.0,51,0.00,,,0.04,Wunderground v.1.15,2013-04-09 21:00:00,
2013-04-09 15:10:00,45.8,32.7,29.60,WSW,240,9.0,9.0,60,0.00,,,0.04,Wunderground v.1.15,2013-04-09 21:10:00,
2013-04-09 15:20:00,43.3,33.4,29.60,WSW,245,9.0,9.0,68,0.00,,,0.04,Wunderground v.1.15,2013-04-09 21:20:00,
2013-04-09 15:30:00,43.5,33.3,29.61,SSW,192,1.0,15.0,67,0.00,,,0.04,Wunderground v.1.15,2013-04-09 21:30:00,
2013-04-09 15:40:00,43.6,33.7,29.62,SSE,163,5.0,15.0,68,0.00,,,0.04,Wunderground v.1.15,2013-04-09 21:40:00,
2013-04-09 15:50:00,42.5,34.5,29.63,SSE,157,6.0,6.0,73,0.00,,,0.05,Wunderground v.1.15,2013-04-09 21:50:00,
2013-04-09 16:00:00,41.3,35.3,29.62,East,98,7.0,7.0,79,0.08,,,0.07,Wunderground v.1.15,2013-04-09 22:00:00,
2013-04-09 16:10:00,41.3,35.9,29.60,ENE,78,4.0,15.0,81,0.05,,,0.07,Wunderground v.1.15,2013-04-09 22:10:00,
2013-04-09 16:20:00,41.5,36.1,29.61,East,91,6.0,15.0,81,0.00,,,0.07,Wunderground v.1.15,2013-04-09 22:20:00,
2013-04-09 16:30:00,41.6,36.2,29.61,East,98,4.0,4.0,81,0.00,,,0.07,Wunderground v.1.15,2013-04-09 22:30:00,
2013-04-09 16:40:00,41.7,36.3,29.61,East,86,5.0,15.0,81,0.00,,,0.07,Wunderground v.1.15,2013-04-09 22:40:00,
2013-04-09 16:50:00,42.3,36.9,29.61,ESE,109,5.0,15.0,81,0.00,,,0.07,Wunderground v.1.15,2013-04-09 22:50:00,
2013-04-09 17:00:00,42.4,35.7,29.61,ESE,112,8.0,15.0,77,0.00,,,0.07,Wunderground v.1.15,2013-04-09 23:00:00,
2013-04-09 17:10:00,43.6,35.9,29.61,East,93,6.0,6.0,74,0.00,,,0.07,Wunderground v.1.15,2013-04-09 23:10:00,
2013-04-09 17:20:00,45.3,36.8,29.61,East,86,3.0,15.0,72,0.00,,,0.07,Wunderground v.1.15,2013-04-09 23:20:00,
2013-04-09 17:30:00,46.0,34.5,29.62,SE,130,6.0,15.0,64,0.00,,,0.07,Wunderground v.1.15,2013-04-09 23:30:00,
2013-04-09 17:40:00,46.6,33.9,29.63,ESE,102,7.0,15.0,61,0.00,,,0.07,Wunderground v.1.15,2013-04-09 23:40:00,
2013-04-09 17:50:00,47.2,33.6,29.64,East,97,3.0,3.0,59,0.00,,,0.07,Wunderground v.1.15,2013-04-09 23:50:00,
2013-04-09 18:00:00,47.6,32.2,29.65,ESE,119,5.0,5.0,55,0.00,,,0.07,Wunderground v.1.15,2013-04-10 00:00:00,
2013-04-09 18:10:00,47.7,31.4,29.66,SE,131,6.0,6.0,53,0.00,,,0.07,Wunderground v.1.15,2013-04-10 00:10:00,
2013-04-09 18:20:00,47.9,31.6,29.67,ESE,123,4.0,4.0,53,0.00,,,0.07,Wunderground v.1.15,2013-04-10 00:20:00,
2013-04-09 18:30:00,47.9,31.1,29.67,SSE,150,3.0,15.0,52,0.00,,,0.07,Wunderground v.1.15,2013-04-10 00:30:00,
2013-04-09 18:40:00,47.8,31.5,29.68,SSE,147,5.0,5.0,53,0.00,,,0.07,Wunderground v.1.15,2013-04-10 00:40:00,
2013-04-09 18:50:00,47.6,31.8,29.67,SE,139,6.0,15.0,54,0.00,,,0.07,Wunderground v.1.15,2013-04-10 00:50:00,
2013-04-09 19:00:00,47.4,31.6,29.68,ESE,107,6.0,15.0,54,0.00,,,0.07,Wunderground v.1.15,2013-04-10 01:00:00,
2013-04-09 19:10:00,47.3,31.5,29.69,SE,138,5.0,5.0,54,0.00,,,0.07,Wunderground v.1.15,2013-04-10 01:10:00,
2013-04-09 19:20:00,47.2,32.3,29.71,South,170,5.0,15.0,56,0.00,,,0.07,Wunderground v.1.15,2013-04-10 01:20:00,
2013-04-09 19:30:00,46.7,34.0,29.73,SSW,207,6.0,15.0,61,0.00,,,0.07,Wunderground v.1.15,2013-04-10 01:30:00,
2013-04-09 19:40:00,45.8,33.9,29.73,WSW,243,3.0,3.0,63,0.00,,,0.07,Wunderground v.1.15,2013-04-10 01:40:00,
2013-04-09 19:50:00,45.0,34.7,29.74,SSW,198,1.0,15.0,67,0.00,,,0.07,Wunderground v.1.15,2013-04-10 01:50:00,
2013-04-09 20:00:00,45.1,35.5,29.74,SSW,195,3.0,15.0,69,0.00,,,0.07,Wunderground v.1.15,2013-04-10 02:00:00,
2013-04-09 20:10:00,45.3,35.7,29.75,SSE,157,3.0,15.0,69,0.00,,,0.07,Wunderground v.1.15,2013-04-10 02:10:00,
2013-04-09 20:20:00,45.2,34.9,29.76,SSE,159,2.0,2.0,67,0.00,,,0.07,Wunderground v.1.15,2013-04-10 02:20:00,
2013-04-09 20:30:00,45.2,34.5,29.76,SSE,153,1.0,15.0,66,0.00,,,0.07,Wunderground v.1.15,2013-04-10 02:30:00,
2013-04-09 20:40:00,45.1,35.2,29.76,SE,128,4.0,15.0,68,0.00,,,0.07,Wunderground v.1.15,2013-04-10 02:40:00,
2013-04-09 20:50:00,44.3,35.5,29.76,ESE,109,4.0,15.0,71,0.00,,,0.07,Wunderground v.1.15,2013-04-10 02:50:00,
2013-04-09 21:00:00,43.9,35.1,29.76,ESE,116,5.0,5.0,71,0.00,,,0.08,Wunderground v.1.15,2013-04-10 03:00:00,
2013-04-09 21:10:00,43.6,35.2,29.77,ESE,103,2.0,2.0,72,0.00,,,0.08,Wunderground v.1.15,2013-04-10 03:10:00,
2013-04-09 21:20:00,43.3,34.9,29.78,East,96,1.0,15.0,72,0.00,,,0.08,Wunderground v.1.15,2013-04-10 03:20:00,
2013-04-09 21:30:00,43.1,34.7,29.78,East,96,0.0,15.0,72,0.00,,,0.08,Wunderground v.1.15,2013-04-10 03:30:00,
2013-04-09 21:40:00,43.0,34.2,29.79,East,96,1.0,15.0,71,0.00,,,0.08,Wunderground v.1.15,2013-04-10 03:40:00,
2013-04-09 21:50:00,43.8,34.3,29.80,East,96,2.0,15.0,69,0.00,,,0.08,Wunderground v.1.15,2013-04-10 03:50:00,
2013-04-09 22:00:00,43.9,34.0,29.80,East,96,1.0,1.0,68,0.00,,,0.08,Wunderground v.1.15,2013-04-10 04:00:00,
2013-04-09 22:10:00,43.6,34.5,29.81,East,96,0.0,15.0,70,0.00,,,0.08,Wunderground v.1.15,2013-04-10 04:10:00,
2013-04-09 22:20:00,43.5,34.4,29.80,East,96,0.0,15.0,70,0.00,,,0.08,Wunderground v.1.15,2013-04-10 04:20:00,
2013-04-09 22:30:00,43.7,33.8,29.81,East,101,3.0,15.0,68,0.00,,,0.08,Wunderground v.1.15,2013-04-10 04:30:00,
2013-04-09 22:40:00,43.6,33.7,29.81,SE,144,4.0,15.0,68,0.00,,,0.08,Wunderground v.1.15,2013-04-10 04:40:00,
2013-04-09 22:50:00,43.3,33.8,29.81,SE,144,4.0,4.0,69,0.00,,,0.08,Wunderground v.1.15,2013-04-10 04:50:00,
2013-04-09 23:00:00,42.9,34.1,29.81,SE,142,3.0,3.0,71,0.00,,,0.08,Wunderground v.1.15,2013-04-10 05:00:00,
2013-04-09 23:10:00,42.5,34.1,29.82,SE,144,4.0,4.0,72,0.00,,,0.08,Wunderground v.1.15,2013-04-10 05:10:00,
2013-04-09 23:20:00,42.5,34.1,29.83,SE,144,3.0,15.0,72,0.00,,,0.08,Wunderground v.1.15,2013-04-10 05:20:00,
2013-04-09 23:30:00,42.4,34.0,29.83,SE,144,2.0,15.0,72,0.00,,,0.08,Wunderground v.1.15,2013-04-10 05:30:00,
2013-04-09 23:40:00,42.4,34.0,29.83,SE,144,1.0,15.0,72,0.00,,,0.08,Wunderground v.1.15,2013-04-10 05:40:00,
2013-04-09 23:50:00,42.5,34.1,29.84,SE,144,0.0,15.0,72,0.00,,,0.08,Wunderground v.1.15,2013-04-10 05:50:00,